TimeCDT,TemperatureF,Dew PointF,Humidity,Sea Level PressureIn,VisibilityMPH,Wind Direction,Wind SpeedMPH,Gust SpeedMPH,PrecipitationIn,Events,Conditions,WindDirDegrees,DateUTC
12:17 AM,53.6,46.4,77,30.01,10.0,SE,10.4,-,N/A,Rain,Rain,130,2013-10-15 05:17:00
12:36 AM,51.8,46.4,82,30.00,10.0,SE,12.7,-,N/A,Rain,Light Rain,130,2013-10-15 05:36:00
12:56 AM,50.0,46.4,87,29.99,7.0,ESE,11.5,-,N/A,Rain,Rain,120,2013-10-15 05:56:00
1:16 AM,48.2,46.4,93,29.98,7.0,ESE,10.4,-,N/A,Rain,Light Rain,120,2013-10-15 06:16:00
1:36 AM,48.2,46.4,93,29.97,7.0,SE,9.2,-,N/A,Rain,Rain,130,2013-10-15 06:36:00
1:56 AM,48.2,46.4,93,29.94,7.0,ESE,10.4,-,N/A,Rain,Light Rain,120,2013-10-15 06:56:00
2:16 AM,48.2,46.4,93,29.94,10.0,SE,10.4,-,N/A,Rain,Light Rain,140,2013-10-15 07:16:00
2:37 AM,48.2,46.4,93,29.94,10.0,SE,8.1,-,N/A,,Overcast,140,2013-10-15 07:37:00
2:57 AM,48.2,46.4,93,29.93,10.0,ESE,6.9,-,N/A,Rain,Light Rain,120,2013-10-15 07:57:00
3:16 AM,48.2,46.4,93,29.92,10.0,ESE,4.6,-,N/A,Rain,Light Rain,120,2013-10-15 08:16:00
3:37 AM,48.2,46.4,93,29.90,10.0,SSE,4.6,-,N/A,Rain,Rain,150,2013-10-15 08:37:00
3:57 AM,50.0,46.4,87,29.88,7.0,SE,5.8,-,N/A,Rain,Light Rain,130,2013-10-15 08:57:00
4:16 AM,50.0,46.4,87,29.87,5.0,SE,5.8,-,N/A,Rain,Rain,130,2013-10-15 09:16:00
4:37 AM,50.0,48.2,94,29.85,7.0,SE,8.1,-,N/A,Rain,Light Rain,130,2013-10-15 09:37:00
4:56 AM,50.0,48.2,94,29.85,10.0,SE,10.4,-,N/A,,Light Drizzle,130,2013-10-15 09:56:00
5:16 AM,50.0,48.2,94,29.83,7.0,SE,10.4,-,N/A,Rain,Light Rain,140,2013-10-15 10:16:00
5:37 AM,51.8,50.0,94,29.81,7.0,SE,10.4,-,N/A,Rain,Rain,130,2013-10-15 10:37:00
5:56 AM,51.8,50.0,94,29.80,7.0,SE,10.4,-,N/A,Rain,Light Rain,130,2013-10-15 10:56:00
6:16 AM,51.8,50.0,94,29.79,10.0,SE,8.1,-,N/A,,Overcast,130,2013-10-15 11:16:00
6:37 AM,53.6,51.8,94,29.79,10.0,SE,9.2,-,N/A,,Overcast,140,2013-10-15 11:37:00
6:56 AM,53.6,51.8,94,29.78,10.0,SE,10.4,-,N/A,,Overcast,140,2013-10-15 11:56:00
7:16 AM,53.6,51.8,94,29.77,10.0,SE,8.1,-,N/A,,Overcast,130,2013-10-15 12:16:00
7:37 AM,53.6,51.8,94,29.77,10.0,SE,9.2,-,N/A,,Overcast,140,2013-10-15 12:37:00
7:56 AM,53.6,51.8,94,29.77,10.0,SE,8.1,-,N/A,,Overcast,140,2013-10-15 12:56:00
8:16 AM,53.6,51.8,94,29.76,7.0,SSE,8.1,-,N/A,,Overcast,150,2013-10-15 13:16:00
8:36 AM,53.6,51.8,94,29.76,10.0,SSE,6.9,-,N/A,,Overcast,150,2013-10-15 13:36:00
8:56 AM,55.4,53.6,94,29.75,10.0,SE,11.5,-,N/A,,Overcast,140,2013-10-15 13:56:00
9:17 AM,55.4,53.6,94,29.74,10.0,SSE,5.8,-,N/A,,Overcast,160,2013-10-15 14:17:00
9:36 AM,55.4,53.6,94,29.74,10.0,SSE,5.8,-,N/A,,Overcast,150,2013-10-15 14:36:00
9:56 AM,55.4,53.6,94,29.74,10.0,SSE,9.2,-,N/A,,Overcast,150,2013-10-15 14:56:00
10:17 AM,55.4,53.6,94,29.73,10.0,SSE,5.8,-,N/A,,Overcast,160,2013-10-15 15:17:00
10:36 AM,55.4,53.6,94,29.73,10.0,SSE,6.9,-,N/A,,Overcast,150,2013-10-15 15:36:00
10:57 AM,55.4,53.6,94,29.74,7.0,WSW,11.5,18.4,N/A,Rain,Light Rain,240,2013-10-15 15:57:00
11:17 AM,55.4,50.0,82,29.74,10.0,SW,6.9,16.1,N/A,,Overcast,220,2013-10-15 16:17:00
11:36 AM,55.4,50.0,82,29.74,10.0,WSW,5.8,-,N/A,,Overcast,250,2013-10-15 16:36:00
11:57 AM,55.4,50.0,82,29.74,10.0,SW,3.5,-,N/A,,Overcast,230,2013-10-15 16:57:00
12:17 PM,55.4,50.0,82,29.74,10.0,SW,4.6,-,N/A,,Overcast,220,2013-10-15 17:17:00
12:36 PM,55.4,48.2,77,29.73,10.0,SW,5.8,-,N/A,,Overcast,220,2013-10-15 17:36:00
12:57 PM,57.2,46.4,67,29.73,10.0,WSW,5.8,-,N/A,,Overcast,240,2013-10-15 17:57:00
1:17 PM,55.4,46.4,72,29.73,10.0,SW,10.4,17.3,N/A,,Overcast,230,2013-10-15 18:17:00
1:36 PM,55.4,46.4,72,29.73,10.0,SW,6.9,-,N/A,,Overcast,230,2013-10-15 18:36:00
1:57 PM,53.6,44.6,72,29.73,10.0,WSW,5.8,-,N/A,,Overcast,240,2013-10-15 18:57:00
2:17 PM,53.6,44.6,72,29.73,10.0,WSW,11.5,17.3,N/A,,Overcast,250,2013-10-15 19:17:00
2:36 PM,53.6,44.6,72,29.73,10.0,SW,9.2,-,N/A,,Overcast,230,2013-10-15 19:36:00
2:57 PM,53.6,44.6,72,29.73,10.0,SW,5.8,-,N/A,,Overcast,220,2013-10-15 19:57:00
3:16 PM,53.6,42.8,67,29.74,10.0,WSW,4.6,-,N/A,,Overcast,240,2013-10-15 20:16:00
3:36 PM,53.6,44.6,72,29.74,10.0,WSW,5.8,-,N/A,,Overcast,250,2013-10-15 20:36:00
3:57 PM,53.6,44.6,72,29.73,10.0,SW,6.9,-,N/A,,Overcast,220,2013-10-15 20:57:00
4:16 PM,53.6,44.6,72,29.74,10.0,SW,10.4,17.3,N/A,,Overcast,230,2013-10-15 21:16:00
4:36 PM,51.8,42.8,71,29.74,10.0,WSW,9.2,18.4,N/A,,Overcast,250,2013-10-15 21:36:00
4:57 PM,50.0,44.6,82,29.75,7.0,WSW,6.9,-,N/A,,Overcast,240,2013-10-15 21:57:00
5:16 PM,48.2,44.6,87,29.75,5.0,WSW,6.9,-,N/A,,Overcast,250,2013-10-15 22:16:00
5:36 PM,48.2,44.6,87,29.75,5.0,SW,5.8,-,N/A,,Overcast,230,2013-10-15 22:36:00
5:57 PM,48.2,44.6,87,29.75,10.0,SW,8.1,-,N/A,,Overcast,230,2013-10-15 22:57:00
6:16 PM,48.2,44.6,87,29.75,10.0,SSW,5.8,-,N/A,,Overcast,210,2013-10-15 23:16:00
6:36 PM,48.2,44.6,87,29.75,10.0,West,5.8,-,N/A,,Overcast,260,2013-10-15 23:36:00
6:57 PM,48.2,44.6,87,29.76,10.0,Calm,Calm,-,N/A,,Overcast,0,2013-10-15 23:57:00
7:16 PM,48.2,44.6,87,29.75,7.0,SSW,3.5,-,N/A,,Overcast,200,2013-10-16 00:16:00
7:36 PM,48.2,44.6,87,29.76,7.0,Calm,Calm,-,N/A,,Overcast,0,2013-10-16 00:36:00
7:56 PM,48.2,44.6,87,29.76,10.0,SSW,3.5,-,N/A,,Overcast,200,2013-10-16 00:56:00
8:16 PM,48.2,44.6,87,29.76,10.0,SSW,4.6,-,N/A,,Overcast,210,2013-10-16 01:16:00
8:37 PM,48.2,44.6,87,29.76,10.0,SW,3.5,-,N/A,,Overcast,220,2013-10-16 01:37:00
8:56 PM,48.2,44.6,87,29.76,10.0,WSW,5.8,-,N/A,,Overcast,240,2013-10-16 01:56:00
9:17 PM,48.2,44.6,87,29.76,10.0,Calm,Calm,-,N/A,,Overcast,0,2013-10-16 02:17:00
9:36 PM,48.2,44.6,87,29.77,7.0,Calm,Calm,-,N/A,,Overcast,0,2013-10-16 02:36:00
9:56 PM,48.2,46.4,93,29.77,5.0,Calm,Calm,-,N/A,,Overcast,0,2013-10-16 02:56:00
10:17 PM,48.2,46.4,93,29.77,7.0,Calm,Calm,-,N/A,,Overcast,0,2013-10-16 03:17:00
10:36 PM,48.2,46.4,93,29.76,10.0,Calm,Calm,-,N/A,,Overcast,0,2013-10-16 03:36:00
10:56 PM,48.2,46.4,93,29.76,10.0,Calm,Calm,-,N/A,,Overcast,0,2013-10-16 03:56:00
11:17 PM,48.2,46.4,93,29.76,10.0,Calm,Calm,-,N/A,,Overcast,0,2013-10-16 04:17:00
11:36 PM,48.2,46.4,93,29.76,10.0,Calm,Calm,-,N/A,,Overcast,0,2013-10-16 04:36:00
11:56 PM,48.2,46.4,93,29.76,10.0,Calm,Calm,-,N/A,,Overcast,0,2013-10-16 04:56:00